AirNav   Everest Fuels
 
 927 users online  

92MO Fox Run Heliport
Eureka, Missouri, USA

GOING TO EUREKA?


FAA INFORMATION EFFECTIVE 31 DECEMBER 2020

Location

FAA Identifier: 92MO
Lat/Long: 38-26-38.1900N 090-36-25.4500W
38-26.636500N 090-36.424167W
38.4439417,-90.6070694
(estimated)
Elevation: 510 ft. / 155 m (estimated)
Variation: 01E (1995)
From city: 2 miles E of EUREKA, MO
Time zone: UTC -6 (UTC -5 during Daylight Saving Time)
Zip code: 63025

Heliport Operations

Heliport use: Private use. Permission required prior to landing
Activation date: 07/1997
Control tower: no
ARTCC: KANSAS CITY CENTER
FSS: SAINT LOUIS FLIGHT SERVICE STATION
Attendance: JUN-OCT 0600-0000
Segmented circle: no
Lights: FOR PERIMETER LGTS CALL 314-938-4653.

Heliport Communications

WX ASOS at SUS (13 nm N): 134.8 (314-890-7255)

Nearby radio navigation aids

VOR radial/distance  VOR name  Freq  Var
FTZr126/22.8FORISTELL VORTAC110.8005E
STLr192/25.7ST LOUIS VORTAC117.4001E
TOYr237/36.8TROY VORTAC116.0004E

 
NDB name  Hdg/Dist  Freq  Var  ID
SNOOP148/13.932601WSU ... ..-
EAVES192/14.322701WFZ ..-. --..
CIVIC MEMORIAL225/37.326301WCVM -.-. ...- --

Heliport Services

Runway Information

Helipad H1

Dimensions: 100 x 60 ft. / 30 x 18 m
Surface: concrete
Runway edge lights: PERI
Latitude: 38-26.636500N
Longitude: 090-36.424167W
Elevation: 510.0 ft.
Traffic pattern: leftleft

Heliport Ownership and Management from official FAA records

Ownership: Privately-owned
Owner: FOX RUN GOLF CLUB INC
1 PUTT LANE
EUREKA, MO 63025
Phone 314-938-3354
Manager: GARY AULT
1 PUTT LANE
EUREKA, MO 63025
Phone 314-938-3354

Additional Remarks

A52-H1 80 FT TREES 275 FT W.
FOR CD CTC ST LOUIS APCH AT 314-890-1018.

Instrument Procedures

There are no published instrument procedures at 92MO.

Some nearby airports with instrument procedures:

KSUS - Spirit of St Louis Airport (13 nm N)
1H0 - Creve Coeur Airport (18 nm N)
KFES - Festus Memorial Airport (18 nm SE)
KFYG - Washington Regional Airport (20 nm NW)
KSTL - St Louis Lambert International Airport (21 nm NE)
 
Loc | Ops | Rwys | IFR | FBO | Links
Com | Nav | Svcs | Stats | Notes
Area around 92MO (Fox Run Heliport)
 
Road maps at: MapQuest Bing Google
 
Aerial photo
No photo
 
Sectional chart

 
Airport distance calculator
Flying to Fox Run Heliport? Find the distance to fly.

From to 92MO

Sunrise and sunset
Times for 24-Jan-2021
 Local
(UTC-6)
 Zulu
(UTC)
Morning civil twilight06:4712:47
Sunrise07:1513:15
Sunset17:1423:14
Evening civil twilight17:4323:43

Current date and time
Zulu (UTC)  25-Jan-2021 01:22:25
Local (UTC-6)  24-Jan-2021 19:22:25
 
METAR
KSUS 
13nm N 
250054Z 08003KT 10SM OVC031 04/M01 A3005 RMK AO2 SLP181 T00441006
KFYG 
20nm NW 
250035Z AUTO 05003KT 10SM SCT029 BKN050 04/00 A3003 RMK AO2
KSTL 
22nm NE 
250051Z 09004KT 10SM OVC055 04/M01 A3006 RMK AO2 SLP187 T00391006 $
KCPS 
23nm E 
250053Z 10003KT 10SM OVC055 03/01 A3006 RMK AO2 SLP183 T00330011
TAF
KSUS 
13nm N 
242051Z 2421/2518 VRB03KT P6SM OVC035 FM250300 VRB03KT P6SM OVC006 FM250800 08005KT 2SM RA BR OVC005 FM251500 08010G20KT 3SM RA BR OVC006
NOTAMs
Click for the latest NOTAMs
NOTAMs are issued by the DoD/FAA and will open in a separate window not controlled by AirNav.

 

 
 

Would you like to see your business listed on this page?

 If your business provides an interesting product or service to pilots, flight crews, aircraft, or users of the Fox Run Heliport, you should consider listing it here.  To start the listing process, click on the button below
 
Add a business
 

Other Pages about Fox Run Heliport

Update a link
 
Copyright © AirNav, LLC. All rights reserved. Privacy Policy  Contact